Location: *
(34.0486°S, 61.7880°E)
Time: 16:59:44
(UTC+00:00)

CSL-04 Debris - Pass Details

Date: 01 April 2020
Orbit: 826 x 849 km, 98.9° (Epoch: 26 May)

Event Time Altitude Azimuth Distance (km) Brightness Sun altitude
Rises 15:18:01 0° 165° (SSE) 3,430 7.3 -19.6°
Reaches altitude 10° 15:20:24 10° 162° (SSE) 2,491 6.5 -20.1°
Maximum altitude 15:25:56 71° 78° (ENE) 902 4.1 -21.2°
Drops below altitude 10° 15:31:24 10° 353° (N) 2,470 6.6 -22.3°
Sets 15:33:46 0° 351° (N) 3,398 7.3 -22.8°
